www.pogodaiklimat.ru

Погода и климат >> Архив погоды >> Оман >> Khasab Airport


ПОГОДА в Khasab Airport

  • Прогноз погоды в Khasab Airport
  • Монитор погоды в Khasab Airport
  • Климат города

АРХИВ ПОГОДЫ в Khasab Airport

Время (UTC), дата Ветер
(напр.,м/с)
 
Видим.   Явления Облачность Т
(С)
Тd
(С)
f
(%)
Тe
(С)
Тes
(С)
Комфортность P
(гПа)
Po
(гПа)
Тmin
(С)
Tmax
(С)
R
(мм)
R24
(мм)
S
(см)
03 16.07 С 3 6000 м мгла ясно +32.0 +28.2 80 +53 +55 опасность
перегрева
993.3 989.9
06 16.07 С 5 н/о 6/0
[]
+36.4 +25.9 55 +52 +58 опасность
перегрева
993.6 990.3 +32.0
09 16.07 С 7 10 км 4/0
[]
+37.2 +26.0 53 +53 +57 опасность
перегрева
992.8 989.5
12 16.07 С 7 10 км 3/3 900 м
[Cu hum]
+38.0 +26.4 52 +54 +56 опасность
перегрева
991.2 987.9
15 16.07 С 8 10 км ясно +35.4 +26.9 62 +53 +53 опасность
перегрева
991.6 988.3
18 16.07 С 4 10 км ясно +34.5 +27.1 66 +53 +53 опасность
перегрева
993.1 989.8 +38.3
21 16.07 нст 2 н/о ясно +34.5 +26.9 65 +52 +52 опасность
перегрева
992.9 989.6
00 17.07 нст 2 н/о ясно +33.4 +27.8 73 +54 +54 опасность
перегрева
993.0 989.7
03 17.07 В 4 9000 м мгла 3/3 900 м
[Cu hum]
+33.7 +26.9 68 +52 +53 опасность
перегрева
994.2 990.9
06 17.07 нст 1 9000 м мгла ясно +37.0 +26.4 55 +53 +72 опасность
перегрева
994.8 991.5 +33.2
09 17.07 нст 5 9000 м мгла ясно +37.4 +26.5 54 +54 +65 опасность
перегрева
994.1 990.8
12 17.07 нст 6 9000 м мгла 5/0
[]
+38.0 +26.7 53 +55 +58 опасность
перегрева
992.7 989.4
15 17.07 С 4 9000 м мгла ясно +35.6 +26.6 60 +53 +53 опасность
перегрева
992.8 989.5
18 17.07 С 5 10 км 3/0
[]
+34.7 +27.3 66 +54 +54 опасность
перегрева
994.1 990.8 +38.6
21 17.07 С 4 н/о ясно +33.7 +27.9 72 +54 +54 опасность
перегрева
994.6 991.3
00 18.07 С 4 н/о 5/5 600 м
[]
+32.4 +28.2 79 +54 +54 опасность
перегрева
994.9 991.5
03 18.07 С 3 9000 м 4/4 900 м
[Cu Sc]
+33.3 +27.2 70 +52 +53 опасность
перегрева
996.5 993.1
06 18.07 нст 3 8000 м мгла 6/4 900 м
[Cu Sc Ci fib]
+35.6 +26.3 59 +52 +60 опасность
перегрева
997.3 994.0 +32.4
09 18.07 С 6 н/о ясно +37.0 +25.5 52 +51 +61 опасность
перегрева
996.7 993.4
12 18.07 С 7 10 км ясно +37.2 +25.7 52 +52 +55 опасность
перегрева
995.0 991.7
15 18.07 С 7 10 км ясно +34.2 +26.9 66 +52 +52 опасность
перегрева
995.6 992.3
18 18.07 СВ 3 10 км ясно +33.6 +26.5 66 +50 +50 опасность
перегрева
997.2 993.8 +38.0
21 18.07 С 4 н/о ясно +33.1 +26.6 69 +50 +50 опасность
перегрева
997.4 994.0
00 19.07 С 5 н/о ясно +32.6 +27.5 75 +52 +52 опасность
перегрева
997.2 993.8
03 19.07 С 3 6000 м мгла 4/4 750 м
[Sc]
+32.2 +28.0 79 +53 +54 опасность
перегрева
998.6 995.2
06 19.07 С 4 7000 м мгла 3/3 750 м
[Sc]
+34.8 +26.9 64 +53 +61 опасность
перегрева
998.8 995.5 +32.1
09 19.07 С 7 9000 м мгла 1/1 750 м
[Sc]
+36.5 +26.3 56 +53 +59 опасность
перегрева
997.4 994.1
12 19.07 СВ 7 9000 м мгла 1/0
[]
+35.9 +27.1 61 +54 +57 опасность
перегрева
995.9 992.6
15 19.07 З 4 9000 м мгла ясно +37.3 +22.6 43 +46 +46 опасность
перегрева
995.8 992.5
18 19.07 З 5 9000 м мгла 3/0
[Ci fib]
+35.4 +24.6 54 +48 +48 опасность
перегрева
996.8 993.5 +37.6
21 19.07 С 3 н/о ясно +34.2 +25.5 61 +49 +49 опасность
перегрева
996.0 992.7
00 20.07 нст 1 н/о ясно +33.9 +24.4 58 +47 +47 опасность
перегрева
995.5 992.2
03 20.07 С 4 10 км 5/0
[Ci fib]
+32.9 +26.1 68 +49 +51 опасность
перегрева
996.6 993.2
06 20.07 СВ 6 9000 м мгла ясно +37.4 +19.8 36 +43 +50 опасность
перегрева
996.5 993.2 +32.7
09 20.07 З 4 8000 м мгла ясно +40.9 +12.5 19 +41 +55 опасность
перегрева
995.6 992.3
12 20.07 нст 4 10 км ясно +41.2 +11.9 18 +41 +47 опасность
перегрева
994.2 990.9
15 20.07 нст 4 10 км 4/0
[]
+39.6 +15.1 24 +41 +41 опасность
перегрева
993.9 990.6
18 20.07 С 4 10 км ясно +36.8 +19.2 36 +42 +42 опасность
перегрева
995.8 992.5 +42.4
21 20.07 нст 2 10 км 9/0
[]
+35.8 +19.6 39 +41 +41 опасность
перегрева
995.2 991.9
00 21.07 С 1 10 км ясно +32.9 +25.6 66 +48 +48 опасность
перегрева
995.1 991.7
03 21.07 С 3 9000 м мгла 5/0
[Ci fib]
+33.4 +26.1 66 +50 +51 опасность
перегрева
996.1 992.7
06 21.07 С 5 9000 м мгла 4/0
[Ci fib]
+35.4 +24.0 52 +47 +55 опасность
перегрева
996.9 993.6 +32.6
09 21.07 С 7 10 км 4/0
[Ci fib]
+37.8 +22.2 41 +46 +51 опасность
перегрева
996.0 992.7
12 21.07 С 7 10 км ясно +40.0 +15.5 24 +41 +44 опасность
перегрева
994.9 991.6
15 21.07 С 4 10 км ясно +39.0 +7.2 14 +36 +36 очень
жарко
995.2 991.9
18 21.07 З 2 10 км ясно +37.9 +9.1 18 +36 +36 очень
жарко
996.3 993.0 +40.1
21 21.07 нст 1 10 км 10/0
[]
+37.4 +11.1 21 +37 +37 очень
жарко
995.2 991.9
00 22.07 нст 2 10 км 10/0
[]
+36.5 +14.3 27 +38 +38 очень
душно
994.5 991.2
03 22.07 Ю 3 9000 м мгла 3/0
[Ci fib]
+37.4 +14.5 26 +38 +40 душно 995.6 992.3
06 22.07 нст 3 10 км ясно +42.1 +13.5 19 +42 +57 опасность
перегрева
995.7 992.4 +35.3
09 22.07 С 7 10 км ясно +44.3 +15.3 19 +45 +52 опасность
перегрева
994.1 990.9
12 22.07 СВ 6 9000 м мгла 4/4 1200 м
[Cu Sc]
+44.0 +13.2 17 +44 +46 опасность
перегрева
993.1 989.9
15 22.07 СВ 5 8000 м мгла 4/4 1200 м
[Cu Sc]
+41.7 +14.0 20 +42 +42 опасность
перегрева
993.5 990.2
18 22.07 С 2 10 км 9/0
[]
+39.4 +14.9 24 +40 +40 очень
душно
994.8 991.5 +45.1
21 22.07 С 2 10 км 9/0
[]
+37.9 +15.5 27 +40 +40 очень
душно
994.3 991.0
00 23.07 Ю 2 10 км 10/0
[]
+37.1 +14.3 26 +38 +38 душно 993.4 990.1

 

Местоположение метеостанции Khasab Airport (Оман): широта 26.17 долгота 56.23 высота над уровнем моря 3 м.

В архиве по умолчанию представлена погода в Khasab Airport за последнюю неделю. Архивные данные за месяц целиком и за предыдущие месяцы, начиная с января 2011 года, Вы можете получить, выбрав интересующий диапазон дат из раскрывающегося списка и нажав кнопку "Ввод!".


*Определитесь, кто Вы:
робот инопланетянин человек

Внимание! Время в таблицах - всемирное. Для получения местного времени необходимо прибавить поправку, которая в Khasab Airport равна 4 ч.

Смотрите также архив погоды в соседних городах и на ближайших метеорологических станциях:

Погода в Khasab (Оман) (5 км)
Погода в Diba (Оман) (61 км)
Погода в Ras Al Khaimah Int Airport (ОАЭ) (68 км)
Погода в Sharjah (ОАЭ) (117 км)
Погода в Bandarabbass (Иран) (118 км)
Погода в Fujairah (ОАЭ) (119 км)
Погода в Dubai (ОАЭ) (136 км)
Погода в Abu Musa Island (Иран) (145 км)
Погода в Bandar Lengeh (Иран) (147 км)
Погода в Jask (Иран) (165 км)

Пояснения к столбцам:

Ветер - указаны скорость ветра в м/с - средняя за 10 мин, порывы в срок и между сроками (в фигурных скобках) и направление, откуда дует ветер: С - северный, СВ - северо-восточный, В - восточный, ЮВ - юго-восточный, Ю - южный, ЮЗ - юго-западный, З - западный, СЗ - северо-западный.
Видимость - горизонтальная дальность видимости в метрах или километрах. При видимости от 1 до 10 км при отсутствии осадков обычно наблюдается дымка, при ухудшении видимости до 1 км и менее - туман. В сухую погоду видимость может ухудшаться дымом, пылью или мглою.
Явления - указаны атмосферные явления, наблюдавшиеся в срок или в последний час перед сроком; фигурными скобками обозначены явления, наблюдавшиеся между сроками (за 1-3 часа до срока); квадратными скобками обозначены град или гололедные отложения с указанием их диаметра в мм.
Облачность - указаны через наклонную черту общая и нижняя облачность в баллах и высота нижней границы облаков в метрах; квадратными скобками обозначены формы облаков: Ci - перистые, Cs - перисто-слоистые, Cc - перисто-кучевые, Ac - высококучевые, As - высокослоистые, Sc - слоисто-кучевые, Ns - слоисто-дождевые, Cu - кучевые, Cb - кучево-дождевые. Подробнее классификацию облаков см. в Атласе облаков (PDF).
T - Температура воздуха - температура, измеренная на высоте 2 м над землей.
Td - Температура точки росы - температура, при понижении до которой содержащийся в воздухе водяной пар достигнет насыщения.
f - Относительная влажность воздуха - влажноcть воздуха, измеренная на высоте 2 м над землей.
Te - Эффективная температура - температура, которую ощущает одетый по сезону человек в тени. Характеристика душности погоды. При расчете учитывается влияние влажности воздуха и скорости ветра на теплоощущения человека.
Tes - Эффективная температура на солнце - температура, которую ощущает человек, с поправкой на солнечный нагрев. Характеристика знойности погоды. Зависит от высоты солнца над горизонтом, облачности и скорости ветра. Ночью, в пасмурную погоду, а также при ветре 12 м/с и более поправка равна нулю.
P - Атмосферное давление - приведенное к уровню моря атмосферное давление.
Po - Атмосферное давление - измеренное на уровне метеостанции атмосферное давление.
Tmin - Минимальная температура - минимум температуры воздуха на высоте 2 м над землей.
Tmax - Максимальная температура - максимум температуры воздуха на высоте 2 м над землей.
R - Количество осадков - Количество выпавших осадков за период времени, мм. При наведении курсора мыши на число - период времени, за который выпало указанное количество осадков.
R24 - Количество осадков - Количество выпавших осадков за 24 часа, мм.
S - Снежный покров - Высота снежного покрова, см. При наведении курсора мыши на число - состояние снежного покрова и степень покрытия местности в баллах.